TimeCDT,TemperatureF,Dew PointF,Humidity,Sea Level PressureIn,VisibilityMPH,Wind Direction,Wind SpeedMPH,Gust SpeedMPH,PrecipitationIn,Events,Conditions,WindDirDegrees,DateUTC
12:53 AM,50.0,45.0,83,30.13,10.0,Calm,Calm,-,N/A,,Clear,0,2013-04-23 05:53:00
1:53 AM,48.0,43.0,83,30.11,10.0,Calm,Calm,-,N/A,,Clear,0,2013-04-23 06:53:00
2:53 AM,48.9,44.1,83,30.09,10.0,Calm,Calm,-,N/A,,Clear,0,2013-04-23 07:53:00
3:53 AM,48.9,44.1,83,30.09,10.0,Calm,Calm,-,N/A,,Clear,0,2013-04-23 08:53:00
5:53 AM,48.9,44.1,83,30.10,10.0,Calm,Calm,-,N/A,,Mostly Cloudy,0,2013-04-23 10:53:00
6:53 AM,57.0,46.9,69,30.12,10.0,South,8.1,-,N/A,,Mostly Cloudy,190,2013-04-23 11:53:00
7:53 AM,59.0,48.0,67,30.13,10.0,South,10.4,-,N/A,,Scattered Clouds,190,2013-04-23 12:53:00
8:53 AM,64.0,46.9,54,30.12,10.0,South,16.1,23.0,N/A,,Clear,180,2013-04-23 13:53:00
9:53 AM,66.0,46.9,50,30.11,10.0,South,17.3,25.3,N/A,,Clear,190,2013-04-23 14:53:00
10:53 AM,69.1,48.0,47,30.12,10.0,SW,13.8,26.5,N/A,,Clear,220,2013-04-23 15:53:00
11:53 AM,68.0,48.9,50,30.11,10.0,South,11.5,-,N/A,,Clear,180,2013-04-23 16:53:00
12:53 PM,70.0,48.9,47,30.10,10.0,SW,13.8,17.3,N/A,,Partly Cloudy,230,2013-04-23 17:53:00
1:53 PM,70.0,50.0,49,30.07,10.0,SSW,11.5,-,N/A,,Clear,200,2013-04-23 18:53:00
2:53 PM,72.0,51.1,48,30.04,10.0,South,10.4,-,N/A,,Clear,180,2013-04-23 19:53:00
3:53 PM,73.9,51.1,45,29.99,10.0,SSE,15.0,19.6,N/A,,Mostly Cloudy,160,2013-04-23 20:53:00
4:53 PM,73.9,51.1,45,29.97,10.0,SSE,11.5,-,N/A,,Partly Cloudy,160,2013-04-23 21:53:00
5:53 PM,73.0,50.0,44,29.96,10.0,South,12.7,-,N/A,,Scattered Clouds,180,2013-04-23 22:53:00
6:53 PM,72.0,50.0,46,29.93,10.0,South,13.8,-,N/A,,Partly Cloudy,180,2013-04-23 23:53:00
7:53 PM,70.0,50.0,49,29.94,10.0,South,11.5,-,N/A,,Clear,180,2013-04-24 00:53:00
8:53 PM,66.9,51.1,57,29.96,10.0,South,8.1,-,N/A,,Clear,190,2013-04-24 01:53:00
9:53 PM,66.9,51.1,57,29.96,10.0,South,8.1,-,N/A,,Mostly Cloudy,180,2013-04-24 02:53:00
10:53 PM,66.9,51.1,57,29.94,10.0,South,11.5,-,N/A,,Clear,180,2013-04-24 03:53:00
11:53 PM,66.9,52.0,59,29.94,10.0,South,15.0,-,N/A,,Clear,190,2013-04-24 04:53:00